Location: Navajo
(48.7922°N, 105.0603°W)
Time: 10:04:43
(UTC+00:00)

CZ-4 DEB - Visible Passes

Search period start: 26 November 2022 00:00
Search period end: 06 December 2022 00:00
Orbit: 653 x 742 km, 98.4° (Epoch: 23 November)

Date Brightness Start Highest point End Pass type
(mag) Time Alt. Az. Time Alt. Az. Time Alt. Az.
26 Nov ? 00:21:25 10° S 00:25:57 60° WSW 00:30:26 10° NNW visible
26 Nov ? 12:16:26 10° NE 12:20:04 23° E 12:23:44 10° SSE visible
27 Nov ? 01:03:32 10° SSW 01:07:18 25° W 01:11:03 10° NW visible
27 Nov ? 12:56:58 10° NNE 13:01:27 55° E 13:05:58 10° S visible
28 Nov ? 00:06:00 10° SSE 00:10:35 84° WSW 00:15:08 10° NNW visible
28 Nov ? 01:48:06 10° W 01:48:54 10° W 01:49:42 10° WNW visible
28 Nov ? 12:01:35 10° NE 12:04:35 17° E 12:07:35 10° SE visible
28 Nov ? 13:38:06 10° N 13:42:36 62° WNW 13:47:09 10° SSW visible
29 Nov ? 00:47:41 10° SSW 00:51:50 34° W 00:55:59 10° NNW visible
29 Nov ? 12:41:45 10° NNE 12:46:03 39° E 12:50:23 10° SSE visible
29 Nov ? 23:50:43 10° SSE 23:55:13 70° ENE 23:59:44 10° N visible
30 Nov ? 01:30:46 10° SW 01:33:21 15° W 01:35:54 10° NW visible
30 Nov ? 11:47:10 10° ENE 11:49:02 12° E 11:50:54 10° ESE visible
30 Nov ? 13:22:41 10° NNE 13:27:16 86° WNW 13:31:55 10° SSW visible
01 Dec ? 00:32:00 10° S 00:36:24 48° W 00:40:46 10° NNW visible
01 Dec ? 12:26:36 10° NE 12:30:35 29° E 12:34:37 10° SSE visible
01 Dec ? 23:35:32 10° SE 23:39:53 50° ENE 23:44:15 10° N visible
02 Dec ? 01:14:25 10° SW 01:17:48 20° W 01:21:11 10° NW visible
02 Dec ? 13:07:18 10° NNE 13:11:53 68° ESE 13:16:32 10° S visible
03 Dec ? 00:16:28 10° S 00:20:58 68° WSW 00:25:28 10° NNW visible
03 Dec ? 12:11:34 10° NE 12:15:05 21° E 12:18:37 10° SE visible
03 Dec ? 13:48:31 10° N 13:52:58 51° WNW 13:57:29 10° SW visible
04 Dec ? 00:58:24 10° SSW 01:02:17 28° W 01:06:10 10° NW visible
04 Dec ? 12:51:59 10° NNE 12:56:28 49° E 13:01:00 10° S visible
05 Dec ? 00:01:03 10° SSE 00:05:34 86° ENE 00:10:06 10° NNW visible
05 Dec ? 01:42:10 10° WSW 01:43:50 12° W 01:45:30 10° WNW visible
05 Dec ? 11:56:47 10° NE 11:59:31 15° E 12:02:19 10° SE visible
05 Dec ? 13:33:01 10° N 13:37:37 71° WNW 13:42:18 10° SSW visible
